Regional Weather Roundup
Issued by NWS

Home | Current Version | Previous Version | Graphics & Text | Print | Product List | Glossary Off
Versions: 1 2 3 4 5 6 7 8 9 10 11 12 13 14 15 16 17 18 19 20 21 22 23 24 25 26 27 28 29 30 31 32 33 34 35 36 37 38 39 40 41 42 43 44 45 46 47 48 49 50

000
ASUS43 KDTX 281810
RWRMI
MICHIGAN HOURLY REGIONAL WEATHER ROUNDUP
NATIONAL WEATHER SERVICE DETROIT/PONTIAC MI
100 PM EST SAT FEB 28 2015

NOTE: "FAIR" INDICATES FEW OR NO CLOUDS BELOW 12,000 FEET WITH NO
SIGNIFICANT WEATHER AND/OR OBSTRUCTION TO VISIBILITY.

MIZ047>049-052>055-059>063-066>070-074>076-081>083-281900-
SOUTHEAST LOWER MICHIGAN

CITY           SKY/WX    TMP DP  RH WIND       PRES   REMARKS
ADRIAN         SUNNY     16   3  56 W6        30.74F
6HR MIN TEMP: -10; 6HR MAX TEMP:  16;

ALMA           SUNNY     18   8  65 S9        30.70F
ANN ARBOR      SUNNY     16   2  54 S9        30.72F
BAD AXE        SUNNY     19   8  62 W10       30.69F
DETROIT CITY   SUNNY     20   3  48 SW10      30.74F
6HR MIN TEMP:   0; 6HR MAX TEMP:  20;

DETROIT        MOSUNNY   19   4  51 S10       30.75F
6HR MIN TEMP:  -2; 6HR MAX TEMP:  19;

FLINT          SUNNY     20   1  43 W12       30.71F
6HR MIN TEMP:  -4; 6HR MAX TEMP:  20;

GROSSE ILE     SUNNY     18   7  62 S6        30.74F
HILLSDALE      SUNNY     17   1  49 S6        30.68F
6HR MIN TEMP:  -5; 6HR MAX TEMP:  17;

HOWELL         SUNNY     19   0  44 S9        30.69F

CITY           SKY/WX    TMP DP  RH WIND       PRES   REMARKS
JACKSON        SUNNY     18   1  47 S9        30.69F
6HR MIN TEMP:  -8; 6HR MAX TEMP:  18;

LAMBERTVILLE   SUNNY     23   3  42 S5        30.74F
LANSING        MIX PCPN  18  -3  39 S10       30.70F
6HR MIN TEMP:   0; 6HR MAX TEMP:  18; 6HR PCP: TRACE;

LAPEER         NOT AVBL
MASON          SUNNY     18   0  46 S7        30.70F
MONROE         SUNNY     19   7  58 S5        30.73F
MT. CLEMENS    MOSUNNY   19   7  58 S13       30.71F
6HR MIN TEMP:  -5; 6HR MAX TEMP:  21;

PONTIAC        MOSUNNY   19   2  47 SW10      30.69F
6HR MIN TEMP:  -6; 6HR MAX TEMP:  19;

PORT HOPE        N/A     19   7  59 SW12G17   30.68F
6HR MIN TEMP:   4; 6HR MAX TEMP:  19;

PORT HURON     SUNNY     19   1  45 S9        30.73F
TRI CITIES     SUNNY     20   7  57 SW9       30.69F
6HR MIN TEMP:   3; 6HR MAX TEMP:  20;

YPSILANTI      SUNNY     20   3  48 SW12      30.74F
6HR MIN TEMP:  -2; 6HR MAX TEMP:  20;

$$
MIZ043>046-050>051-056>058-064>065-071>073-077>080-281900-
SOUTHWEST LOWER MICHIGAN

CITY           SKY/WX    TMP DP  RH WIND       PRES   REMARKS
BATTLE CREEK   SUNNY     16  -1  47 SW10      30.69F
6HR MIN TEMP:  -8; 6HR MAX TEMP:  16;

BENTON HARBOR  SUNNY     15  -3  44 S8        30.71F
6HR MIN TEMP:  -9; 6HR MAX TEMP:  15;

BIG RAPIDS     SUNNY     21   7  55 W10       30.63F
6HR MIN TEMP: -10; 6HR MAX TEMP:  21;

COLDWATER      SUNNY     18   1  47 S6        30.69F
6HR MIN TEMP: -14; 6HR MAX TEMP:  18;

HOLLAND        SUNNY     18   5  57 S8        30.70F
6HR MIN TEMP:  -1; 6HR MAX TEMP:  18;

GRAND RAPIDS   MOSUNNY   17   6  62 S7        30.69F
6HR MIN TEMP:  -4; 6HR MAX TEMP:  17;

KALAMAZOO      SUNNY     15  -1  49 S10       30.70F
6HR MIN TEMP:  -5; 6HR MAX TEMP:  16;

MARSHALL       SUNNY     17   1  49 SW6       30.69F
MUSKEGON       LGT SNOW  18  10  71 S12       30.70F
6HR MIN TEMP:   4; 6HR MAX TEMP:  19; 6HR PCP: TRACE;

$$
MIZ016>042-281900-
NORTHERN LOWER MICHIGAN

CITY           SKY/WX    TMP DP  RH WIND       PRES   REMARKS
ALPENA         SUNNY     23   5  46 SW10      30.61F
6HR MIN TEMP:   4; 6HR MAX TEMP:  23;

BEAVER ISLAND  SUNNY     18  10  71 SW15G23   30.59F
6HR MIN TEMP:   6; 6HR MAX TEMP:  18;

BELLAIRE       SUNNY     23   5  47 SW8       30.63F
6HR MIN TEMP: -10; 6HR MAX TEMP:  23;

CADILLAC       SUNNY     20   6  54 W8        30.56F
CHARLEVOIX     SUNNY     19   7  59 SW10G16   30.64F
6HR MIN TEMP:   1; 6HR MAX TEMP:  19;

FRANKFORT      MOCLDY    20  12  68 SW10G18   30.64F
GAYLORD        SUNNY     19   4  51 SW10      30.55F
6HR MIN TEMP:  -4; 6HR MAX TEMP:  19;

GRAYLING       SUNNY     21   5  51 S8        30.59F
HARBOR SPRINGS SUNNY     20   9  61 W7        30.60F
HOUGHTON LAKE  SUNNY     20   4  50 W9        30.61F
6HR MIN TEMP: -11; 6HR MAX TEMP:  20;

MANISTEE       SUNNY     21   3  45 W9        30.65F
OSCODA         SUNNY     22   8  54 SW10      30.64F
PELLSTON       SUNNY     20   5  52 W12       30.60F
6HR MIN TEMP:  -8; 6HR MAX TEMP:  20;

TRAVERSE CITY  MOSUNNY   22   6  50 SW9       30.61F
6HR MIN TEMP:  -7; 6HR MAX TEMP:  22;

$$
MIZ007>008-015-281900-
EASTERN UPPER MICHIGAN

CITY           SKY/WX    TMP DP  RH WIND       PRES   REMARKS
KINROSS        SUNNY     21   3  45 SW10G18   30.56F
6HR MIN TEMP:   1; 6HR MAX TEMP:  21;

MACKINAC ISLAN SUNNY     17   9  68 W10G22    30.59F
6HR MIN TEMP:   6; 6HR MAX TEMP:  18;

NEWBERRY       SUNNY     18   4  53 S9        30.53F
6HR MIN TEMP:  -1; 6HR MAX TEMP:  18;

S. S. MARIE    SUNNY     18   2  49 SE5       30.56F
6HR MIN TEMP: -10; 6HR MAX TEMP:  18;

$$
MIZ004>006-011>014-085-281900-
CENTRAL UPPER MICHIGAN

CITY           SKY/WX    TMP DP  RH WIND       PRES   REMARKS
MANISTIQUE     SUNNY     18   8  63 S13G20    30.56F
6HR MIN TEMP:   3; 6HR MAX TEMP:  19;

ESCANABA       SUNNY     14   3  62 S15       30.58F WCI  -1
6HR MIN TEMP:  -9; 6HR MAX TEMP:  16;

MENOMINEE      SUNNY     16   1  53 SW8       30.59F
6HR MIN TEMP:   0; 6HR MAX TEMP:  16;

SAWYER-GWINN   SUNNY     19  -4  35 S13       30.47F
$$
MIZ001>003-009>011-084-281900-
WESTERN UPPER MICHIGAN

CITY           SKY/WX    TMP DP  RH WIND       PRES   REMARKS
IRON MOUNTAIN  SUNNY     20   1  43 S13       30.47F
6HR MIN TEMP:  -4; 6HR MAX TEMP:  20; 6HR PCP: TRACE;

HOUGHTON       SUNNY     17   2  51 SW5       30.43F
6HR MIN TEMP:   2; 6HR MAX TEMP:  17;

COPPER HARBOR    N/A     19   8  62 N6        30.45F
6HR MIN TEMP:   9; 6HR MAX TEMP:  20;

IRONWOOD       MOSUNNY   18   0  45 SW14G20   30.40F
6HR MIN TEMP:  -2; 6HR MAX TEMP:  18;

$$

ABBREVIATIONS USED IN REMARKS
   TC - TEMPERATURE IN CELSIUS
  WCI - WIND CHILL INDEX
   HX - HEAT INDEX
  VSB - VISIBILITY



USA.gov is the U.S. government's official web portal to all federal, state and local government web resources and services.